H1 CPF 2 NER 2025 11 9 9 313 01 glonass129 H2 1106402 9129 37868 2025 11 9 0 0 0 2025 11 12 23 45 0 900 1 1 0 0 0 1 H9 10 0 60988 0.00000 0 3700338.820 -10253537.284 -23020970.652 10 0 60988 900.00000 0 6171247.151 -8820589.485 -23089545.351 10 0 60988 1800.00000 0 8723733.692 -7583576.707 -22708029.695 10 0 60988 2700.00000 0 11291640.489 -6567781.041 -21884112.640 10 0 60988 3600.00000 0 13806125.107 -5786229.443 -20634109.267 10 0 60988 4500.00000 0 16198345.799 -5239323.504 -18982620.603 10 0 60988 5400.00000 0 18402153.517 -4915016.551 -16962032.120 10 0 60988 6300.00000 0 20356678.523 -4789527.630 -14611862.248 10 0 60988 7200.00000 0 22008704.236 -4828559.300 -11977975.037 10 0 60988 8100.00000 0 23314730.494 -4988965.129 -9111673.537 10 0 60988 9000.00000 0 24242641.826 -5220794.228 -6068692.534 10 0 60988 9900.00000 0 24772913.217 -5469624.797 -2908110.939 10 0 60988 10800.00000 0 24899305.385 -5679087.096 308794.621 10 0 60988 11700.00000 0 24629023.019 -5793468.949 3519732.773 10 0 60988 12600.00000 0 23982331.637 -5760294.050 6662594.259 10 0 60988 13500.00000 0 22991651.054 -5532765.038 9676640.221 10 0 60988 14400.00000 0 21700164.799 -5071969.453 12503659.983 10 0 60988 15300.00000 0 20160004.327 -4348756.831 15089077.277 10 0 60988 16200.00000 0 18430083.945 -3345209.096 17382985.160 10 0 60988 17100.00000 0 16573676.144 -2055643.147 19341091.422 10 0 60988 18000.00000 0 14655827.182 -487103.797 20925557.957 10 0 60988 18900.00000 0 12740718.911 1340674.143 22105719.591 10 0 60988 19800.00000 0 10889084.684 3395834.368 22858669.835 10 0 60988 20700.00000 0 9155784.892 5635476.466 23169703.216 10 0 60988 21600.00000 0 7587641.213 8007199.985 23032606.018 10 0 60988 22500.00000 0 6221618.266 10451053.989 22449789.623 10 0 60988 23400.00000 0 5083427.567 12901814.222 21432262.985 10 0 60988 24300.00000 0 4186611.751 15291496.319 19999443.318 10 0 60988 25200.00000 0 3532147.712 17552003.232 18178806.691 10 0 60988 26100.00000 0 3108586.264 19617798.704 16005382.990 10 0 60988 27000.00000 0 2892723.836 21428496.589 13521102.619 10 0 60988 27900.00000 0 2850779.569 22931258.298 10774005.250 10 0 60988 28800.00000 0 2940029.755 24082897.506 7817323.970 10 0 60988 29700.00000 0 3110831.841 24851602.603 4708461.126 10 0 60988 30600.00000 0 3308953.049 25218202.674 1507874.875 10 0 60988 31500.00000 0 3478104.937 25176921.524 -1722101.946 10 0 60988 32400.00000 0 3562575.574 24735585.757 -4918487.045 10 0 60988 33300.00000 0 3509846.035 23915276.142 -8018892.869 10 0 60988 34200.00000 0 3273077.879 22749435.538 -10962763.645 10 0 60988 35100.00000 0 2813363.369 21282470.225 -13692579.072 10 0 60988 36000.00000 0 2101640.105 19567903.638 -16154998.921 10 0 60988 36900.00000 0 1120186.128 17666161.115 -18301924.039 10 0 60988 37800.00000 0 -136370.212 15642080.261 -20091451.208 10 0 60988 38700.00000 0 -1660570.277 13562253.439 -21488701.845 10 0 60988 39600.00000 0 -3432196.540 11492315.923 -22466507.429 10 0 60988 40500.00000 0 -5418892.946 9494295.214 -23005938.034 10 0 60988 41400.00000 0 -7577308.130 7624133.890 -23096663.902 10 0 60988 42300.00000 0 -9854712.866 5929490.346 -22737143.723 10 0 60988 43200.00000 0 -12191023.034 4447909.287 -21934637.119 10 0 60988 44100.00000 0 -14521142.319 3205437.423 -20705042.491 10 0 60988 45000.00000 0 -16777525.595 2215740.444 -19072564.948 10 0 60988 45900.00000 0 -18892855.057 1479755.676 -17069222.455 10 0 60988 46800.00000 0 -20802716.910 985891.891 -14734201.340 10 0 60988 47700.00000 0 -22448166.874 710764.624 -12113075.210 10 0 60988 48600.00000 0 -23778078.034 620432.849 -9256903.719 10 0 60988 49500.00000 0 -24751174.107 672082.051 -6221229.720 10 0 60988 50400.00000 0 -25337664.849 816080.397 -3064995.060 10 0 60988 51300.00000 0 -25520417.232 998319.560 150603.509 10 0 60988 52200.00000 0 -25295615.607 1162740.478 3363296.068 10 0 60988 53100.00000 0 -24672885.388 1253937.169 6510936.260 10 0 60988 54000.00000 0 -23674876.989 1219729.153 9532690.516 10 0 60988 54900.00000 0 -22336328.888 1013594.878 12370197.825 10 0 60988 55800.00000 0 -20702649.830 596864.736 14968678.934 10 0 60988 56700.00000 0 -18828079.608 -59417.389 17277975.163 10 0 60988 57600.00000 0 -16773504.591 -973041.319 19253498.562 10 0 60988 58500.00000 0 -14604017.911 -2149646.929 20857076.805 10 0 60988 59400.00000 0 -12386324.178 -3582250.922 22057678.204 10 0 60988 60300.00000 0 -10186094.587 -5251304.620 22832004.227 10 0 60988 61200.00000 0 -8065380.186 -7125281.928 23164939.065 10 0 60988 62100.00000 0 -6080188.650 -9161775.164 23049847.959 10 0 60988 63000.00000 0 -4278323.436 -11309055.940 22488718.369 10 0 60988 63900.00000 0 -2697573.812 -13508039.160 21492140.388 10 0 60988 64800.00000 0 -1364330.377 -15694571.519 20079125.363 10 0 60988 65700.00000 0 -292683.640 -17801952.128 18276764.258 10 0 60988 66600.00000 0 515956.135 -19763582.531 16119730.119 10 0 60988 67500.00000 0 1072700.907 -21515637.218 13649631.839 10 0 60988 68400.00000 0 1400493.961 -22999643.781 10914229.408 10 0 60988 69300.00000 0 1532913.724 -24164864.524 7966523.847 10 0 60988 70200.00000 0 1512521.494 -24970378.607 4863737.977 10 0 60988 71100.00000 0 1388821.998 -25386775.477 1666206.906 10 0 60988 72000.00000 0 1215922.843 -25397386.064 -1563800.282 10 0 60988 72900.00000 0 1049992.507 -24998997.381 -4763304.146 10 0 60988 73800.00000 0 946625.948 -24202018.027 -7869858.738 10 0 60988 74700.00000 0 958231.525 -23030085.591 -10822789.628 10 0 60988 75600.00000 0 1131552.597 -21519131.122 -13564399.844 10 0 60988 76500.00000 0 1505431.688 -19715939.478 -16041117.983 10 0 60988 77400.00000 0 2108914.761 -17676266.323 -18204563.893 10 0 60988 78300.00000 0 2959778.481 -15462591.908 -20012509.271 10 0 60988 79200.00000 0 4063544.829 -13141607.406 -21429713.011 10 0 60988 80100.00000 0 5413026.229 -10781541.040 -22428614.066 10 0 60988 81000.00000 0 6988421.183 -8449437.783 -22989867.997 10 0 60988 81900.00000 0 8757956.548 -6208507.951 -23102716.966 10 0 60988 82800.00000 0 10679049.025 -4115656.493 -22765186.662 10 0 60988 83700.00000 0 12699936.173 -2219296.448 -21984107.434 10 0 60988 84600.00000 0 14761707.437 -557537.227 -20774960.625 10 0 60988 85500.00000 0 16800648.812 843178.034 -19161554.661 10 0 60989 0.00000 0 18750801.730 1968931.325 -17175539.018 10 0 60989 900.00000 0 20546629.308 2818652.320 -14855765.994 10 0 60989 1800.00000 0 22125675.439 3403893.030 -12247516.939 10 0 60989 2700.00000 0 23431109.123 3748069.419 -9401605.722 10 0 60989 3600.00000 0 24414045.651 3885203.606 -6373380.501 10 0 60989 4500.00000 0 25035549.775 3858223.089 -3221642.972 10 0 60989 5400.00000 0 25268238.462 3716890.843 -7506.692 10 0 60989 6300.00000 0 25097418.034 3515455.078 3206783.322 10 0 60989 7200.00000 0 24521709.997 3310118.592 6359047.066 10 0 60989 8100.00000 0 23553141.224 3156434.489 9388359.612 10 0 60989 9000.00000 0 22216696.116 3106737.496 12236212.760 10 0 60989 9900.00000 0 20549350.456 3207718.098 14847627.145 10 0 60989 10800.00000 0 18598627.582 3498240.375 17172194.909 10 0 60989 11700.00000 0 16420736.720 4007494.059 19165034.579 10 0 60989 12600.00000 0 14078369.978 4753557.504 20787641.473 10 0 60989 13500.00000 0 11638248.032 5742431.349 22008618.898 10 0 60989 14400.00000 0 9168514.376 6967583.591 22804277.431 10 0 60989 15300.00000 0 6736084.062 8410026.036 23159091.698 10 0 60989 16200.00000 0 4404054.583 10038920.658 23066006.286 10 0 60989 17100.00000 0 2229284.194 11812692.956 22526584.709 10 0 60989 18000.00000 0 260236.470 13680608.671 21550997.761 10 0 60989 18900.00000 0 -1464820.532 15584751.193 20157850.061 10 0 60989 19800.00000 0 -2919186.139 17462320.183 18373846.221 10 0 60989 20700.00000 0 -4088612.656 19248158.020 16233300.834 10 0 60989 21600.00000 0 -4971667.015 20877400.578 13777499.359 10 0 60989 22500.00000 0 -5579552.247 22288142.563 11053919.906 10 0 60989 23400.00000 0 -5935394.915 23424005.952 8115329.010 10 0 60989 24300.00000 0 -6073027.224 24236503.047 5018767.342 10 0 60989 25200.00000 0 -6035314.123 24687093.249 1824444.183 10 0 60989 26100.00000 0 -5872095.593 24748844.747 -1405438.039 10 0 60989 27000.00000 0 -5637831.329 24407628.541 -4607905.710 10 0 60989 27900.00000 0 -5389048.491 23662791.709 -7720457.476 10 0 60989 28800.00000 0 -5181702.337 22527279.101 -10682303.162 10 0 60989 29700.00000 0 -5068563.850 21027196.329 -13435571.906 10 0 60989 30600.00000 0 -5096747.700 19200831.176 -15926463.716 10 0 60989 31500.00000 0 -5305488.051 17097174.143 -18106319.784 10 0 60989 32400.00000 0 -5724258.985 14774000.646 -19932588.793 10 0 60989 33300.00000 0 -6371321.321 12295596.310 -21369668.909 10 0 60989 34200.00000 0 -7252758.886 9730222.230 -22389608.050 10 0 60989 35100.00000 0 -8362045.975 7147427.930 -22972648.435 10 0 60989 36000.00000 0 -9680164.501 4615325.923 -23107604.961 10 0 60989 36900.00000 0 -11176265.612 2197942.918 -22792070.730 10 0 60989 37800.00000 0 -12808847.054 -47241.177 -22032446.797 10 0 60989 38700.00000 0 -14527395.623 -2071464.019 -20843796.966 10 0 60989 39600.00000 0 -16274424.334 -3836471.768 -19249532.020 10 0 60989 40500.00000 0 -17987817.501 -5315857.342 -17280931.164 10 0 60989 41400.00000 0 -19603384.245 -6495892.693 -14976511.600 10 0 60989 42300.00000 0 -21057512.585 -7375823.425 -12381259.994 10 0 60989 43200.00000 0 -22289812.595 -7967616.855 -9545742.093 10 0 60989 44100.00000 0 -23245638.043 -8295177.590 -6525108.844 10 0 60989 45000.00000 0 -23878381.577 -8393066.775 -3378019.162 10 0 60989 45900.00000 0 -24151448.457 -8304781.670 -165500.679 10 0 60989 46800.00000 0 -24039827.652 -8080670.045 3050229.283 10 0 60989 47700.00000 0 -23531196.150 -7775568.635 6206959.920 10 0 60989 48600.00000 0 -22626511.898 -7446265.686 9243677.811 10 0 60989 49500.00000 0 -21340071.969 -7148894.321 12101730.418 10 0 60989 50400.00000 0 -19699034.506 -6936365.749 14725941.031 10 0 60989 51300.00000 0 -17742424.836 -6855949.153 17065655.215 10 0 60989 52200.00000 0 -15519666.929 -6947098.644 19075700.337 10 0 60989 53100.00000 0 -13088700.474 -7239617.324 20717241.400 10 0 60989 54000.00000 0 -10513760.289 -7752234.518 21958518.369 10 0 60989 54900.00000 0 -7862908.229 -8491655.451 22775452.185 10 0 60989 55800.00000 0 -5205417.612 -9452123.422 23152108.749 10 0 60989 56700.00000 0 -2609116.072 -10615513.894 23081012.434 10 0 60989 57600.00000 0 -137794.576 -11951958.356 22563302.890 10 0 60989 58500.00000 0 2151212.054 -13420974.297 21608731.370 10 0 60989 59400.00000 0 4209174.291 -14973056.889 20235495.239 10 0 60989 60300.00000 0 5997758.423 -16551668.815 18469911.952 10 0 60989 61200.00000 0 7490384.166 -18095547.737 16345936.579 10 0 60989 62100.00000 0 8673092.383 -19541237.156 13904529.791 10 0 60989 63000.00000 0 9544885.789 -20825736.161 11192886.176 10 0 60989 63900.00000 0 10117527.065 -21889157.539 8263535.834 10 0 60989 64800.00000 0 10414801.579 -22677282.308 5173335.071 10 0 60989 65700.00000 0 10471274.532 -23143901.926 1982364.862 10 0 60989 66600.00000 0 10330594.180 -23252847.551 -1247241.707 10 0 60989 67500.00000 0 10043412.610 -22979618.163 -4452519.678 10 0 60989 68400.00000 0 9665012.544 -22312536.055 -7570915.234 10 0 60989 69300.00000 0 9252741.891 -21253378.082 -10541525.450 10 0 60989 70200.00000 0 8863366.605 -19817453.590 -13306308.575 10 0 60989 71100.00000 0 8550456.339 -18033123.815 -15811238.974 10 0 60989 72000.00000 0 8361916.253 -15940781.838 -18007382.000 10 0 60989 72900.00000 0 8337772.031 -13591335.657 -19851865.934 10 0 60989 73800.00000 0 8508304.109 -11044258.444 -21308730.518 10 0 60989 74700.00000 0 8892611.762 -8365288.746 -22349634.567 10 0 60989 75600.00000 0 9497668.858 -5623878.306 -22954408.447 10 0 60989 76500.00000 0 10317911.534 -2890495.602 -23111440.818 10 0 60989 77400.00000 0 11335374.925 -233899.066 -22817892.745 10 0 60989 78300.00000 0 12520372.320 2281505.448 -22079736.088 10 0 60989 79200.00000 0 13832686.883 4598112.551 -20911616.783 10 0 60989 80100.00000 0 15223224.220 6667269.048 -19336547.243 10 0 60989 81000.00000 0 16636054.735 8451041.162 -17385435.488 10 0 60989 81900.00000 0 18010758.446 9923525.696 -15096461.780 10 0 60989 82800.00000 0 19284972.602 11071653.125 -12514316.415 10 0 60989 83700.00000 0 20397034.316 11895452.331 -9689314.801 10 0 60989 84600.00000 0 21288607.054 12407769.333 -6676408.128 10 0 60989 85500.00000 0 21907180.942 12633455.224 -3534109.682 10 0 60990 0.00000 0 22208342.743 12608060.492 -323358.411 10 0 60990 900.00000 0 22157721.506 12376093.113 2893659.816 10 0 60990 1800.00000 0 21732529.360 11988915.591 6054706.313 10 0 60990 2700.00000 0 20922634.892 11502370.467 9098682.295 10 0 60990 3600.00000 0 19731125.018 10974234.456 11966793.864 10 0 60990 4500.00000 0 18174333.047 10461607.917 14603669.733 10 0 60990 5400.00000 0 16281332.235 10018348.422 16958411.412 10 0 60990 6300.00000 0 14092915.815 9692654.896 18985557.363 10 0 60990 7200.00000 0 11660105.224 9524902.302 20645944.245 10 0 60990 8100.00000 0 9042247.065 9545816.377 21907450.360 10 0 60990 9000.00000 0 6304775.847 9775063.960 22745608.370 10 0 60990 9900.00000 0 3516732.850 10220317.624 23144076.475 10 0 60990 10800.00000 0 748141.306 10876834.079 23094959.472 10 0 60990 11700.00000 0 -1932656.033 11727565.134 22598973.385 10 0 60990 12600.00000 0 -4461588.985 12743798.345 21665449.724 10 0 60990 13500.00000 0 -6781276.195 13886302.943 20312177.945 10 0 60990 14400.00000 0 -8843166.622 15106935.735 18565087.261 10 0 60990 15300.00000 0 -10609317.863 16350642.436 16457771.735 10 0 60990 16200.00000 0 -12053737.187 17557772.961 14030865.414 10 0 60990 17100.00000 0 -13163228.641 18666615.405 11331277.260 10 0 60990 18000.00000 0 -13937709.604 19616043.305 8411298.618 10 0 60990 18900.00000 0 -14389982.136 20348164.975 5327598.951 10 0 60990 19800.00000 0 -14544967.369 20810862.505 2140128.329 10 0 60990 20700.00000 0 -14438434.053 20960111.673 -1089052.194 10 0 60990 21600.00000 0 -14115274.348 20761982.438 -4296989.090 10 0 60990 22500.00000 0 -13627399.745 20194232.715 -7421078.879 10 0 60990 23400.00000 0 -13031346.912 19247425.098 -10400308.698 10 0 60990 24300.00000 0 -12385696.273 17925516.563 -13176468.648 10 0 60990 25200.00000 0 -11748414.627 16245893.841 -15695310.078 10 0 60990 26100.00000 0 -11174236.682 14238851.221 -17907624.946 10 0 60990 27000.00000 0 -10712198.781 11946531.746 -19770223.337 10 0 60990 27900.00000 0 -10403431.396 9421376.057 -21246788.526 10 0 60990 28800.00000 0 -10279305.579 6724144.447 -22308591.878 10 0 60990 29700.00000 0 -10360012.891 3921595.942 -22935053.240 10 0 60990 30600.00000 0 -10653639.292 1083922.727 -23114136.015 10 0 60990 31500.00000 0 -11155771.836 -1717951.631 -22842569.827 10 0 60990 32400.00000 0 -11849653.920 -4415096.406 -22125897.511 10 0 60990 33300.00000 0 -12706881.097 -6943206.298 -20978346.863 10 0 60990 34200.00000 0 -13688606.440 -9245032.718 -19422531.198 10 0 60990 35100.00000 0 -14747202.757 -11272513.323 -17488986.196 10 0 60990 36000.00000 0 -15828309.910 -12988512.679 -15215553.636 10 0 60990 36900.00000 0 -16873179.424 -14368103.689 -12646625.561 10 0 60990 37800.00000 0 -17821216.554 -15399339.229 -9832264.913 10 0 60990 38700.00000 0 -18612612.159 -16083484.935 -6827220.795 10 0 60990 39600.00000 0 -19190953.499 -16434706.779 -3689858.395 10 0 60990 40500.00000 0 -19505704.545 -16479229.733 -481024.814 10 0 60990 41400.00000 0 -19514452.356 -16254005.679 2737127.055 10 0 60990 42300.00000 0 -19184826.317 -15804948.704 5902333.972 10 0 60990 43200.00000 0 -18496010.961 -15184813.494 8953414.613 10 0 60990 44100.00000 0 -17439790.230 -14450806.641 11831436.565 10 0 60990 45000.00000 0 -16021080.441 -13662031.222 14480836.774 10 0 60990 45900.00000 0 -14257930.285 -12876871.204 16850475.402 10 0 60990 46800.00000 0 -12180987.846 -12150424.253 18894604.512 10 0 60990 47700.00000 0 -9832456.255 -11532089.038 20573734.666 10 0 60990 48600.00000 0 -7264580.063 -11063406.612 21855384.409 10 0 60990 49500.00000 0 -4537723.307 -10776244.840 22714699.654 10 0 60990 50400.00000 0 -1718116.537 -10691400.970 23134932.035 10 0 60990 51300.00000 0 1124636.520 -10817680.439 23107767.521 10 0 60990 52200.00000 0 3920192.247 -11151490.853 22633498.883 10 0 60990 53100.00000 0 6600133.942 -11676969.243 21721037.923 10 0 60990 54000.00000 0 9100563.907 -12366639.009 20387765.909 10 0 60990 54900.00000 0 11364515.035 -13182571.315 18659223.234 10 0 60990 55800.00000 0 13344082.700 -14078004.672 16568642.060 10 0 60990 56700.00000 0 15002188.482 -14999357.174 14156328.607 10 0 60990 57600.00000 0 16313901.732 -15888548.873 11468904.648 10 0 60990 58500.00000 0 17267262.679 -16685538.007 8558420.849 10 0 60990 59400.00000 0 17863571.185 -17330964.809 5481357.538 10 0 60990 60300.00000 0 18117127.457 -17768791.082 2297531.259 10 0 60990 61200.00000 0 18054434.234 -17948822.780 -931071.861 10 0 60990 62100.00000 0 17712893.042 -17829006.973 -4141512.802 10 0 60990 63000.00000 0 17139049.117 -17377403.375 -7271141.609 10 0 60990 63900.00000 0 16386459.441 -16573744.067 -10258838.670 10 0 60990 64800.00000 0 15513275.027 -15410512.460 -13046229.078 10 0 60990 65700.00000 0 14579641.339 -13893493.106 -15578844.169 10 0 60990 66600.00000 0 13645028.905 -12041766.913 -17807205.338 10 0 60990 67500.00000 0 12765609.289 -9887150.343 -19687807.065 10 0 60990 68400.00000 0 11991789.571 -7473101.381 -21183978.436 10 0 60990 69300.00000 0 11366011.405 -4853138.110 -22266605.283 10 0 60990 70200.00000 0 10920908.939 -2088836.744 -22914698.444 10 0 60990 71100.00000 0 10677903.959 752506.148 -23115797.114 10 0 60990 72000.00000 0 10646297.425 3600448.336 -22866200.064 10 0 60990 72900.00000 0 10822894.838 6384104.965 -22171021.238 10 0 60990 73800.00000 0 11192179.743 9034866.424 -21044069.977 10 0 60990 74700.00000 0 11727026.154 11489017.451 -19507559.778 10 0 60990 75600.00000 0 12389917.644 13690148.667 -17591652.854 10 0 60990 76500.00000 0 13134619.566 15591261.137 -15333850.999 10 0 60990 77400.00000 0 13908231.857 17156477.921 -12778246.148 10 0 60990 78300.00000 0 14653534.246 18362293.649 -9974646.555 10 0 60990 79200.00000 0 15311523.852 19198312.763 -6977596.702 10 0 60990 80100.00000 0 15824037.585 19667448.742 -3845310.867 10 0 60990 81000.00000 0 16136348.855 19785579.092 -638541.570 10 0 60990 81900.00000 0 16199629.693 19580673.572 2580594.985 10 0 60990 82800.00000 0 15973175.566 19091434.640 5749813.891 10 0 60990 83700.00000 0 15426300.497 18365509.077 8807854.385 10 0 60990 84600.00000 0 14539824.087 17457346.904 11695648.501 10 0 60990 85500.00000 0 13307089.143 16425797.768 14357444.182 10 0 60991 0.00000 0 11734468.157 15331545.279 16741862.568 10 0 60991 900.00000 0 9841336.746 14234485.172 18802872.033 10 0 60991 1800.00000 0 7659516.896 13191157.141 20500658.812 10 0 60991 2700.00000 0 5232209.278 12252334.122 21802383.403 10 0 60991 3600.00000 0 2612459.212 11460869.641 22682806.368 10 0 60991 4500.00000 0 -138783.128 10849891.230 23124773.819 10 0 60991 5400.00000 0 -2954930.494 10441414.580 23119553.562 10 0 60991 6300.00000 0 -5766263.312 10245436.004 22667015.352 10 0 60991 7200.00000 0 -8502570.488 10259541.595 21775651.061 10 0 60991 8100.00000 0 -11095819.442 10469050.475 20462433.079 10 0 60991 9000.00000 0 -13482746.687 10847687.842 18752511.811 10 0 60991 9900.00000 0 -15607262.738 11358761.645 16678755.924 10 0 60991 10800.00000 0 -17422571.910 11956795.694 14281141.834 10 0 60991 11700.00000 0 -18892918.457 12589552.614 11606001.854 10 0 60991 12600.00000 0 -19994885.222 13200363.076 8705143.499 10 0 60991 13500.00000 0 -20718189.001 13730664.033 5634855.354 10 0 60991 14400.00000 0 -21065937.577 14122638.904 2454817.768 10 0 60991 15300.00000 0 -21054335.892 14321847.289 -773060.751 10 0 60991 16200.00000 0 -20711852.274 14279731.299 -3985858.403 10 0 60991 17100.00000 0 -20077878.957 13955890.029 -7120881.455 10 0 60991 18000.00000 0 -19200943.146 13320023.003 -10116906.223 10 0 60991 18900.00000 0 -18136544.681 12353457.269 -12915395.407 10 0 60991 19800.00000 0 -16944712.820 11050190.560 -15461662.842 10 0 60991 20700.00000 0 -15687387.126 9417403.802 -17705961.686 10 0 60991 21600.00000 0 -14425735.168 7475419.308 -19604472.909 10 0 60991 22500.00000 0 -13217522.435 5257105.000 -21120173.205 10 0 60991 23400.00000 0 -12114647.417 2806749.161 -22223564.348 10 0 60991 24300.00000 0 -11160947.277 178452.972 -22893249.264 10 0 60991 25200.00000 0 -10390367.447 -2565891.200 -23116343.670 10 0 60991 26100.00000 0 -9825572.328 -5358950.155 -22888715.818 10 0 60991 27000.00000 0 -9477054.888 -8130529.617 -22215050.689 10 0 60991 27900.00000 0 -9342781.169 -10810274.746 -21108738.714 10 0 60991 28800.00000 0 -9408382.655 -13330378.133 -19591592.719 10 0 60991 29700.00000 0 -9647885.960 -15628182.291 -17693400.247 10 0 60991 30600.00000 0 -10024946.506 -17648568.694 -15451321.598 10 0 60991 31500.00000 0 -10494531.691 -19346034.920 -12909146.833 10 0 60991 32400.00000 0 -11004980.363 -20686375.095 -10116427.565 10 0 60991 33300.00000 0 -11500350.012 -21647895.917 -7127501.576 10 0 60991 34200.00000 0 -11922951.474 -22222120.168 -4000430.064 10 0 60991 35100.00000 0 -12215963.705 -22413951.292 -795868.733 10 0 60991 36000.00000 0 -12326018.423 -22241295.033 2424105.210 10 0 60991 36900.00000 0 -12205646.260 -21734156.548 5597187.554 10 0 60991 37800.00000 0 -11815482.354 -20933252.962 8662040.546 10 0 60991 38700.00000 0 -11126139.757 -19888200.867 11559463.169 10 0 60991 39600.00000 0 -10119673.050 -18655355.432 14233516.895 10 0 60991 40500.00000 0 -8790571.649 -17295391.478 16632586.746 10 0 60991 41400.00000 0 -7146241.637 -15870726.975 18710358.951 10 0 60991 42300.00000 0 -5206955.799 -14442895.340 20426698.104 10 0 60991 43200.00000 0 -3005273.082 -13069974.622 21748408.658 10 0 60991 44100.00000 0 -584950.060 -11804179.047 22649867.523 10 0 60991 45000.00000 0 2000612.524 -10689711.690 23113516.668 10 0 60991 45900.00000 0 4690326.403 -9760966.454 23130206.764 10 0 60991 46800.00000 0 7417697.438 -9041153.452 22699385.236 10 0 60991 47700.00000 0 10113340.742 -8541404.952 21829124.376 10 0 60991 48600.00000 0 12707627.829 -8260399.617 20535987.715 10 0 60991 49500.00000 0 15133358.383 -8184521.864 18844735.366 10 0 60991 50400.00000 0 17328347.368 -8288551.187 16787871.871 10 0 60991 51300.00000 0 19237820.840 -8536854.443 14405042.853 10 0 60991 52200.00000 0 20816520.700 -8885032.864 11742289.809 10 0 60991 53100.00000 0 22030429.831 -9281956.135 8851175.336 10 0 60991 54000.00000 0 22858044.045 -9672098.914 5787794.110 10 0 60991 54900.00000 0 23291135.763 -9998081.557 2611687.726 10 0 60991 55800.00000 0 23334975.344 -10203307.220 -615315.828 10 0 60991 56700.00000 0 23007998.963 -10234582.443 -3830315.098 10 0 60991 57600.00000 0 22340935.535 -10044608.180 -6970575.854 10 0 60991 58500.00000 0 21375428.714 -9594233.118 -9974773.642 10 0 60991 59400.00000 0 20162211.956 -8854370.821 -12784211.998 10 0 60991 60300.00000 0 18758914.335 -7807496.481 -15343990.324 10 0 60991 61200.00000 0 17227591.009 -6448657.071 -17604096.410 10 0 60991 62100.00000 0 15632084.294 -4785949.860 -19520400.324 10 0 60991 63000.00000 0 14035328.647 -2840447.245 -21055528.699 10 0 60991 63900.00000 0 12496715.071 -645570.027 -22179601.242 10 0 60991 64800.00000 0 11069627.589 1754064.900 -22870814.609 10 0 60991 65700.00000 0 9799256.477 4304273.854 -23115862.274 10 0 60991 66600.00000 0 8720780.616 6943343.632 -22910182.783 10 0 60991 67500.00000 0 7857994.855 9604390.531 -22258032.526 10 0 60991 68400.00000 0 7222438.819 12217941.485 -21172382.937 10 0 60991 69300.00000 0 6813061.757 14714628.692 -19674645.648 10 0 60991 70200.00000 0 6616435.014 17027884.783 -17794232.577 10 0 60991 71100.00000 0 6607500.293 19096526.158 -15567961.150 10 0 60991 72000.00000 0 6750819.318 20867117.320 -13039317.760 10 0 60991 72900.00000 0 7002269.473 22296018.828 -10257595.221 10 0 60991 73800.00000 0 7311111.617 23351035.224 -7276922.081 10 0 60991 74700.00000 0 7622341.035 24012596.396 -4155203.633 10 0 60991 75600.00000 0 7879221.236 24274425.616 -952995.695 10 0 60991 76500.00000 0 8025893.201 24143669.008 2267666.738 10 0 60991 77400.00000 0 8009950.228 23640483.567 5444463.432 10 0 60991 78300.00000 0 7784870.472 22797103.172 8515982.878 10 0 60991 79200.00000 0 7312205.785 21656423.288 11422894.126 10 0 60991 80100.00000 0 6563435.857 20270164.535 14109075.116 10 0 60991 81000.00000 0 5521410.848 18696692.090 16522677.259 10 0 60991 81900.00000 0 4181322.642 16998581.516 18617107.518 10 0 60991 82800.00000 0 2551164.257 15240031.471 20351910.791 10 0 60991 83700.00000 0 651657.692 13484229.570 21693537.340 10 0 60991 84600.00000 0 -1484348.037 11790779.256 22615981.956 10 0 60991 85500.00000 0 -3812985.503 10213292.923 23101283.617 99